Weather History for Ogden, UT

Change the Weather History Date:

Friday, March 21, 2014

  Actual Average Record
Temperature  
Mean Temperature 39 °F -  
Max Temperature 52 °F 55 °F 73 °F (2004)
Min Temperature 28 °F 30 °F 13 °F (1948)
Degree Days  
Heating Degree Days 26    
Moisture  
Dew Point 15 °F    
Average Humidity 37    
Maximum Humidity 54    
Minimum Humidity 21    
Precipitation  
Precipitation 0.00 in - - ()
Sea Level Pressure  
Sea Level Pressure 29.99 in    
Wind  
Wind Speed 7 mph (NW)    
Max Wind Speed 15 mph    
Max Gust Speed -    
Visibility 10 miles    
Events      
Averages and records for this station are not official NWS values.
T = Trace of Precipitation, MM = Missing Value Source: NWS Daily Summary

Daily Weather History Graph

Daily Weather History Graph

Search for Another Location

Airport:

Trip Planner

Search our weather history database for the weather conditions in past years. The results will help you decide how hot, cold, wet, or windy it might be!

Date:

Astronomy

Mar. 21, 2014 Rise Set
Actual Time 7:29 AM MDT 7:41 PM MDT
Civil Twilight 7:02 AM MDT 8:08 PM MDT
Nautical Twilight 6:29 AM MDT 8:41 PM MDT
Astronomical Twilight 5:57 AM MDT 9:14 PM MDT
Moon 12:06 AM MDT (3/21) 10:21 AM MDT (3/21)
Length of Visible Light 13h 06m
Length of Day
12h 11m
Waning Gibbous, 75% of the Moon is Illuminated
Mar 21
Waning Gibbous
Mar 23
Last Quarter
Mar 30
New
Apr 7
First Quarter
Apr 15
Full

Hourly Weather History & Observations

Time (MDT) Temp. Windchill Dew Point Humidity Pressure Visibility Wind Dir Wind Speed Gust Speed Precip Events Conditions
12:53 AM 41.0 °F 34.7 °F 19.9 °F 43% 29.95 in 10.0 mi NW 10.4 mph - N/A   Clear
1:53 AM 41.0 °F 33.1 °F 17.1 °F 38% 29.96 in 10.0 mi NNW 15.0 mph - N/A   Clear
2:53 AM 37.9 °F 32.1 °F 18.0 °F 45% 29.98 in 10.0 mi WNW 8.1 mph - N/A   Clear
3:53 AM 34.0 °F 27.2 °F 19.0 °F 54% 29.99 in 10.0 mi NW 8.1 mph - N/A   Clear
4:53 AM 32.0 °F 25.6 °F 16.0 °F 52% 30.01 in 10.0 mi WNW 6.9 mph - N/A   Clear
5:53 AM 30.0 °F 23.2 °F 15.1 °F 54% 30.02 in 10.0 mi NW 6.9 mph - N/A   Clear
6:53 AM 30.9 °F 24.3 °F 12.9 °F 47% 30.03 in 10.0 mi NNW 6.9 mph - N/A   Clear
7:53 AM 28.9 °F 21.9 °F 12.0 °F 49% 30.06 in 10.0 mi NW 6.9 mph - N/A   Clear
8:53 AM 35.1 °F 29.3 °F 15.1 °F 44% 30.06 in 10.0 mi NNW 6.9 mph - N/A   Clear
9:53 AM 39.0 °F 34.0 °F 10.9 °F 32% 30.07 in 10.0 mi NNW 6.9 mph - N/A   Clear
10:53 AM 41.0 °F 38.0 °F 12.0 °F 31% 30.06 in 10.0 mi NW 4.6 mph - N/A   Clear
11:53 AM 43.0 °F - 12.9 °F 30% 30.05 in 10.0 mi Calm Calm - N/A   Clear
12:53 PM 45.0 °F - 12.9 °F 27% 30.04 in 10.0 mi Calm Calm - N/A   Clear
1:53 PM 48.0 °F - 12.0 °F 24% 30.01 in 10.0 mi ENE 4.6 mph - N/A   Clear
2:53 PM 48.0 °F - 10.0 °F 22% 29.99 in 10.0 mi Calm Calm - N/A   Clear
3:53 PM 50.0 °F - 10.9 °F 21% 29.97 in 10.0 mi North - - N/A   Clear
4:53 PM 50.0 °F - 10.9 °F 21% 29.96 in 10.0 mi NW 8.1 mph - N/A   Clear
5:53 PM 48.0 °F - 10.9 °F 22% 29.95 in 10.0 mi NW 3.5 mph - N/A   Clear
6:53 PM 46.0 °F 43.1 °F 15.1 °F 29% 29.94 in 10.0 mi WNW 5.8 mph - N/A   Clear
7:53 PM 44.1 °F 41.5 °F 15.1 °F 31% 29.95 in 10.0 mi West 4.6 mph - N/A   Clear
8:53 PM 41.0 °F 38.0 °F 19.0 °F 41% 29.95 in 10.0 mi NW 4.6 mph - N/A   Clear
9:53 PM 41.0 °F 39.0 °F 21.0 °F 45% 29.95 in 10.0 mi West 3.5 mph - N/A   Partly Cloudy
10:53 PM 41.0 °F - 19.9 °F 43% 29.94 in 10.0 mi Calm Calm - N/A   Clear
11:53 PM 41.0 °F 39.0 °F 19.9 °F 43% 29.94 in 10.0 mi South 3.5 mph - N/A   Partly Cloudy